Погода в Сагутьеве

Россия / Брянская область     52°26′07″N   33°27′43″E
темп.,
°C
ветер,
м/с
пор.,
м/с
влажн.,
%
обл.,
%
осадки,
мм/ч
давл.,
гПа
погр.,
м
12 апреля, пн
пн1200:00+7в346899 0.0 103046
03:00+6всв3573100 0.0 102988
06:00+4св3977100 0.0 1029164
09:00+8всв51159100 0.0 1027443
12:00+7в4786100 1.3 1026423
15:00+11всв3575100 1.3 1025495
18:00+13св2478100 0.0 1023134
21:00+10ссв3591100 0.0 102387
13 апреля, вт
вт1300:00+10всв3591100 0.0 102187
03:00+10юв2288100 0.0 102227
06:00+9вюв3484100 0.0 102244
09:00+13юв4107015 0.0 1021406
12:00+15юв5965100 0.0 1021810
15:00+18ююв5856100 0.1 10201637
18:00+16ююв4867100 0.8 1019369
21:00+12ю3787100 1.1 1020209
14 апреля, ср
ср1400:00+11ююв3790100 0.0 1020274
03:00+9ююв3395100 0.0 101959
06:00+10юв2394100 0.0 101965
09:00+12ююв3483100 0.0 1018331
12:00+13ююв3477100 0.0 1018511
15:00+15юв3465100 0.1 10171007
18:00+12вюв4786100 3.1 1016280
21:00+11юв4893100 5.6 1016313
15 апреля, чт
чт1500:00+10ююв3793100 2.1 1016266
03:00+9ююв2596100 3.2 1015175
06:00+8юв229411 0.0 101538
09:00+12ююв2379100 0.0 1015297
12:00+15в125990 1.3 1015760
15:00+16в015399 3.4 10141220
18:00+14с3369100 1.5 101362
21:00+11ссв3783100 1.6 1013142
16 апреля, пт
пт1600:00+11св3585100 0.2 101393
03:00+11ссв5984100 0.3 1012245
06:00+10св41184100 0.0 1012323
09:00+11св51378100 0.1 1013645
12:00+15св81065100 0.0 10131308
15:00+14св91273100 1.2 10131220
18:00+10св91486100 1.4 1015778
21:00+7св91786100 1.7 1017899